| time (UTC) | temp F | wind direction | speed MPH | gust MPH | rain 1hr in | rain 24hr in | rain mn in | humidity % | barometer mb |
| 20260506091535 | 56 | 184 | 1.0 | 5.0 | 0.00 | 0.00 | 0.00 | 86 | 1009.6 |
| 20260506090030 | 56 | 161 | 1.0 | 3.0 | 0.00 | 0.00 | 0.00 | 86 | 1009.4 |
| 20260506084537 | 56 | 148 | 1.0 | 5.0 | 0.00 | 0.00 | 0.00 | 86 | 1009.8 |
| 20260506083035 | 56 | 0 | 1.0 | 5.0 | 0.00 | 0.00 | 0.00 | 85 | 1009.8 |
| 20260506081540 | 56 | 0 | 1.0 | 4.0 | 0.00 | 0.00 | 0.00 | 85 | 1009.9 |
| 20260506073034 | 56 | 200 | 1.0 | 5.0 | 0.00 | 0.00 | 0.00 | 84 | 1009.9 |
| 20260506071535 | 56 | 0 | 2.0 | 7.0 | 0.00 | 0.00 | 0.00 | 84 | 1010.2 |
| 20260506061531 | 57 | 148 | 1.0 | 4.0 | 0.00 | 0.00 | 0.00 | 81 | 1010.0 |
| 20260506044538 | 60 | 122 | 0.0 | 3.0 | 0.00 | 0.00 | 0.00 | 72 | 1010.5 |
| 20260506043030 | 61 | 135 | 1.0 | 4.0 | 0.00 | 0.00 | 0.00 | 71 | 1010.4 |
| 20260506041544 | 61 | 0 | 0.0 | 5.0 | 0.00 | 0.00 | 0.00 | 69 | 1010.3 |
| 20260506040035 | 62 | 205 | 2.0 | 7.0 | 0.00 | 0.00 | 0.00 | 68 | 1010.3 |
| 20260506034547 | 63 | 130 | 3.0 | 11.0 | 0.00 | 0.00 | 0.00 | 66 | 1010.4 |
| 20260506033035 | 64 | 205 | 5.0 | 11.0 | 0.00 | 0.00 | 0.00 | 65 | 1010.4 |
| 20260506031532 | 64 | 244 | 3.0 | 13.0 | 0.00 | 0.00 | 0.00 | 64 | 1010.1 |
| 20260506030038 | 64 | 186 | 4.0 | 10.0 | 0.00 | 0.00 | 0.00 | 63 | 1010.1 |
| 20260506024533 | 64 | 175 | 5.0 | 10.0 | 0.00 | 0.00 | 0.00 | 63 | 1010.2 |
| 20260506023034 | 64 | 184 | 4.0 | 11.0 | 0.00 | 0.00 | 0.00 | 63 | 1010.2 |
| 20260506021533 | 65 | 148 | 4.0 | 13.0 | 0.00 | 0.00 | 0.00 | 63 | 1010.1 |
| 20260506020030 | 65 | 216 | 5.0 | 16.0 | 0.00 | 0.00 | 0.00 | 62 | 1010.2 |
| 20260506014529 | 65 | 212 | 4.0 | 10.0 | 0.00 | 0.00 | 0.00 | 62 | 1010.0 |
| 20260506013048 | 65 | 219 | 6.0 | 16.0 | 0.00 | 0.00 | 0.00 | 62 | 1009.7 |
| 20260506011531 | 65 | 142 | 6.0 | 17.0 | 0.00 | 0.00 | 0.00 | 63 | 1009.6 |
| 20260506010035 | 65 | 285 | 2.0 | 11.0 | 0.00 | 0.00 | 0.00 | 63 | 1009.4 |
| 20260506004530 | 65 | 244 | 6.0 | 16.0 | 0.00 | 0.00 | 0.00 | 62 | 1009.3 |
| 20260506003032 | 65 | 171 | 4.0 | 16.0 | 0.00 | 0.00 | 0.00 | 63 | 1009.1 |
| 20260506001533 | 64 | 244 | 3.0 | 7.0 | 0.00 | 0.00 | 0.00 | 65 | 1008.8 |
| 20260506000033 | 65 | 143 | 1.0 | 6.0 | 0.00 | 0.00 | 0.00 | 64 | 1008.8 |
| 20260505234532 | 66 | 196 | 1.0 | 8.0 | 0.00 | 0.00 | 0.00 | 63 | 1008.6 |
| 20260505233031 | 67 | 205 | 2.0 | 12.0 | 0.00 | 0.00 | 0.00 | 61 | 1008.3 |
| 20260505231534 | 67 | 253 | 2.0 | 8.0 | 0.00 | 0.00 | 0.00 | 60 | 1008.5 |
| 20260505230049 | 68 | 190 | 2.0 | 9.0 | 0.00 | 0.00 | 0.00 | 58 | 1008.1 |
| 20260505224530 | 69 | 132 | 3.0 | 7.0 | 0.00 | 0.00 | 0.00 | 57 | 1007.8 |
| 20260505223040 | 69 | 159 | 2.0 | 8.0 | 0.00 | 0.00 | 0.00 | 57 | 1007.7 |
| 20260505221541 | 70 | 186 | 2.0 | 8.0 | 0.00 | 0.00 | 0.00 | 56 | 1007.8 |
| 20260505220048 | 71 | 174 | 3.0 | 12.0 | 0.00 | 0.00 | 0.00 | 53 | 1007.6 |
| 20260505214536 | 71 | 174 | 2.0 | 7.0 | 0.00 | 0.00 | 0.00 | 53 | 1007.5 |
| 20260505213035 | 72 | 153 | 4.0 | 11.0 | 0.00 | 0.00 | 0.00 | 52 | 1007.4 |
| 20260505211535 | 72 | 171 | 3.0 | 11.0 | 0.00 | 0.00 | 0.00 | 52 | 1007.6 |
| 20260505210035 | 73 | 218 | 3.0 | 11.0 | 0.00 | 0.00 | 0.00 | 51 | 1007.4 |
| 20260505204535 | 73 | 142 | 3.0 | 15.0 | 0.00 | 0.00 | 0.00 | 51 | 1007.4 |
| 20260505203033 | 73 | 134 | 3.0 | 14.0 | 0.00 | 0.00 | 0.00 | 50 | 1007.5 |
| 20260505201533 | 74 | 219 | 5.0 | 13.0 | 0.00 | 0.00 | 0.00 | 50 | 1007.4 |
| 20260505200037 | 74 | 178 | 4.0 | 12.0 | 0.00 | 0.00 | 0.00 | 49 | 1007.8 |
| 20260505194530 | 74 | 194 | 3.0 | 13.0 | 0.00 | 0.00 | 0.00 | 51 | 1008.2 |
| 20260505193031 | 74 | 191 | 8.0 | 22.0 | 0.00 | 0.00 | 0.00 | 49 | 1008.4 |
| 20260505191540 | 74 | 155 | 5.0 | 15.0 | 0.00 | 0.00 | 0.00 | 50 | 1008.3 |
| 20260505190034 | 74 | 124 | 3.0 | 20.0 | 0.00 | 0.00 | 0.00 | 49 | 1008.9 |
| 20260505184532 | 75 | 181 | 5.0 | 11.0 | 0.00 | 0.00 | 0.00 | 49 | 1009.1 |
| 20260505183036 | 76 | 150 | 4.0 | 15.0 | 0.00 | 0.00 | 0.00 | 49 | 1009.1 |
| 20260505181529 | 76 | 205 | 4.0 | 12.0 | 0.00 | 0.00 | 0.00 | 48 | 1009.1 |
| 20260505180033 | 77 | 101 | 5.0 | 15.0 | 0.00 | 0.00 | 0.00 | 46 | 1009.2 |
| 20260505174530 | 77 | 188 | 5.0 | 17.0 | 0.00 | 0.00 | 0.00 | 44 | 1009.2 |
| 20260505173035 | 78 | 208 | 6.0 | 14.0 | 0.00 | 0.00 | 0.00 | 43 | 1009.4 |
| 20260505171533 | 77 | 89 | 5.0 | 13.0 | 0.00 | 0.00 | 0.00 | 44 | 1009.4 |
| 20260505170035 | 77 | 180 | 4.0 | 13.0 | 0.00 | 0.00 | 0.00 | 44 | 1009.6 |
| 20260505164532 | 77 | 149 | 3.0 | 14.0 | 0.00 | 0.00 | 0.00 | 46 | 1009.8 |
| 20260505163033 | 77 | 150 | 2.0 | 12.0 | 0.00 | 0.00 | 0.00 | 47 | 1009.9 |
| 20260505161540 | 76 | 119 | 4.0 | 10.0 | 0.00 | 0.00 | 0.00 | 46 | 1010.0 |
| 20260505153033 | 74 | 235 | 4.0 | 15.0 | 0.00 | 0.00 | 0.00 | 46 | 1010.3 |
| 20260505151532 | 74 | 275 | 3.0 | 11.0 | 0.00 | 0.00 | 0.00 | 47 | 1010.6 |
| 20260505124539 | 63 | 0 | 0.0 | 4.0 | 0.00 | 0.00 | 0.00 | 70 | 1010.7 |
| 20260505123037 | 60 | 236 | 1.0 | 4.0 | 0.00 | 0.00 | 0.00 | 76 | 1010.7 |
| 20260505121537 | 58 | 163 | 1.0 | 4.0 | 0.00 | 0.00 | 0.00 | 78 | 1011.1 |
| 20260505120031 | 57 | 102 | 1.0 | 2.0 | 0.00 | 0.00 | 0.00 | 79 | 1010.7 |
| 20260505114535 | 58 | 0 | 0.0 | 3.0 | 0.00 | 0.00 | 0.00 | 78 | 1010.7 |
| 20260505113030 | 58 | 0 | 0.0 | 3.0 | 0.00 | 0.00 | 0.00 | 81 | 1010.6 |
| 20260505111530 | 53 | 202 | 1.0 | 2.0 | 0.00 | 0.00 | 0.00 | 88 | 1010.7 |
| 20260505101540 | 49 | 0 | 0.0 | 0.0 | 0.00 | 0.00 | 0.00 | 87 | 1010.2 |
| 20260505100035 | 50 | 0 | 0.0 | 0.0 | 0.00 | 0.00 | 0.00 | 87 | 1010.0 |
| 20260505094530 | 50 | 0 | 0.0 | 0.0 | 0.00 | 0.00 | 0.00 | 87 | 1010.0 |
| 20260505093033 | 51 | 0 | 0.0 | 0.0 | 0.00 | 0.00 | 0.00 | 86 | 1009.9 |